Find Local Weather

World > North America > United States > Missouri

Saint Louis, Missouri Regional Weather

Lat: 38.64N, Lon: 90.24W
Wx Zone: MOZ064
Warning FLW WEATHER ALERT - (More Info. Click Here) Warning
Feedback

Saint Louis, MO Regional Weather

Expires:201904240900;;403314
ASUS43 KEAX 240810
RWREAX

WEATHER ROUNDUP FOR EASTERN KANSAS AND NORTHWEST MISSOURI
NATIONAL WEATHER SERVICE KANSAS CITY/PLEASANT HILL MO
300 AM CDT WED APR 24 2019


MOZ041-047>049-056>058-063>065-088>090-097-240900-
...EASTERN AND SOUTHERN MISSOURI...
  
CITY           SKY/WX    TMP DP  RH WIND       PRES   REMARKS
ST. LOUIS INTL CLOUDY    57  54  89 E8        29.95F                  
SPIRIT OF STL  LGT RAIN  58  56  93 E5        29.95F                  
COLUMBIA       CLOUDY    56  54  93 E3        29.94F FOG              
JEFFERSON CITY LGT RAIN  57  55  93 CALM      29.94F FOG              
ROLLA          LGT RAIN  56  53  90 E5        29.93F FOG              
OSAGE BEACH    LGT RAIN  56  56 100 CALM      29.95R FOG              
SPRINGFIELD    CLOUDY    58  56  93 CALM      29.92F                  
BRANSON        CLOUDY    57  57 100 CALM      29.94S                  
JOPLIN         FOG       55  55 100 NW5       29.94F VSB 1/4          
WEST PLAINS    CLOUDY    61  57  87 CALM      29.93F                  

$$


SKY/WX - Weather  TMP - Temperature  DP - Dew Point  RH - Relative Humidity
WIND - Wind Direction/Speed PRES - Barometric Pressure VSB - Visibility
WCI - Wind Chill Index E13G22 Wind - East Wind 13 mph/Gusts of 22 mph